[[{"header":{"parameterUnit":"m.s-1","parameterCategory":1,"la1":30.2991,"la2":30.254,"lo1":-89.0895,"lo2":-89.0444,"dy":0.0017,"dx":0.0017,"nx":28,"ny":28,"refTime":"2025-04-05T09:00:00:Z","depth":0,"parameterNumber":2,"parameterNumberName":"U-component_of_WINDS"},"data":[0,0,0,0,0,0,0,0,0,0,0,0,0,0,0,0,0,0,0,0,0,0,0,0,0,0,0,0,0,0,0,0,0,0,0,0,0,0,0,0,0,0,0,0,0,0,0,0,0,0,0,0,0,0,0,0,0,0,4.6902,4.6903,0,4.6962,4.6962,4.6963,4.6883,4.688,4.6877,4.6875,4.6938,4.6942,4.6946,0,0,0,0,0,0,0,0,0,0,0,0,0,4.6722,4.6725,4.6902,4.6903,4.6903,4.6962,4.6962,4.6963,4.6884,4.688,4.6877,4.6873,4.6936,4.6941,4.6947,0,0,0,0,0,0,0,0,0,0,0,0,0,4.6793,4.6726,4.6902,4.6871,4.6868,4.6961,4.6962,4.6963,4.6884,4.688,4.6876,4.6872,4.6935,4.6941,4.6947,4.7074,0,0,4.6967,4.697,0,0,0,0,0,0,0,0,4.6789,4.6799,4.6874,4.6873,4.6871,4.6911,4.6922,4.7001,4.6886,4.6878,4.6875,4.687,4.6932,4.6939,4.696,4.7077,4.708,4.6968,4.6972,4.6975,4.6977,0,0,0,0,0,0,0,4.6784,4.6796,4.6925,4.6876,4.6873,4.6855,4.686,4.6936,4.6929,4.6879,4.6873,4.6881,4.693,4.6953,4.696,4.7081,4.6968,4.6974,4.6978,4.698,4.7308,4.7313,0,0,0,0,0,0,4.6782,4.6793,4.6924,4.6927,4.6818,4.6861,4.6867,4.6902,4.6928,4.6928,4.6885,4.6877,4.6944,4.6953,4.6962,4.7114,4.6975,4.6981,4.6985,4.7304,4.7309,4.7315,0,0,0,0,0,0,4.6779,4.6795,4.6921,4.6859,4.6873,4.6869,4.6909,4.6906,4.6928,4.6932,4.6931,4.6909,4.6941,4.6953,4.7047,4.7115,4.6984,4.699,4.7298,4.7305,4.7312,4.7417,0,0,0,0,0,0,4.6774,4.6794,4.6841,4.686,4.6877,4.7005,4.6913,4.691,4.694,4.693,4.6955,4.6955,4.6939,4.7038,4.7054,4.7122,4.6995,4.7292,4.7301,4.731,4.7408,4.7427,4.7444,0,0,0,0,0,4.6768,4.6868,4.6844,4.686,4.6936,4.7009,4.7018,4.6997,4.6945,4.6994,4.6997,4.6954,4.7105,4.7049,4.7066,4.7136,4.7288,4.7299,4.7309,4.74,4.7423,4.7443,0,0,0,0,0,0,4.6857,4.687,4.6843,4.6953,4.698,4.6995,4.7055,4.7022,4.7065,4.7055,4.7027,4.7034,4.7135,4.7145,4.7081,4.7262,4.7188,4.7203,4.7251,4.7274,4.7291,4.7287,4.7,0,0,0,0,0,4.689,4.6947,4.6955,4.7051,4.7067,4.7059,4.709,4.7071,4.7099,4.711,4.7119,4.7149,4.7203,4.7239,4.7288,4.7409,4.7414,4.7466,4.7484,4.7499,4.7512,4.7579,4.7602,4.735,4.735,4.735,0,0,4.6957,4.6971,4.7009,4.707,4.7089,4.715,4.7069,4.7136,4.7182,4.712,4.721,4.7219,4.7249,4.7358,4.7406,4.737,4.7583,4.7513,4.7525,4.753,4.7592,4.7616,4.7638,4.7357,4.7356,4.7355,0,0,4.7112,4.7128,4.721,4.7231,4.7261,4.7256,4.7276,4.7296,4.73,4.7389,4.7345,4.7399,4.7493,4.7517,4.7541,4.7708,4.7672,4.7726,4.7819,4.7885,4.7905,4.7922,4.7983,4.8005,4.7739,4.7739,4.7739,0,4.7192,4.7281,4.7257,4.7328,4.7357,4.7304,4.7389,4.741,4.7456,4.7477,4.7436,4.7553,4.757,4.7684,4.7725,4.7747,4.777,4.7722,4.7904,4.7921,4.7937,4.7994,4.8017,4.7745,4.7744,4.7744,4.7743,0,4.7379,4.7442,4.7506,4.7551,4.7587,4.7664,4.7653,4.7692,4.7672,4.7671,4.7764,4.7783,4.7837,4.7863,4.7843,4.7975,4.7952,4.7908,4.7833,4.7968,4.8021,4.8043,4.7754,4.7752,4.775,4.7749,0,0,4.759,4.7622,4.7646,4.7667,4.7697,4.7746,4.7822,4.7874,4.791,4.7943,4.8007,4.8089,4.8049,4.8077,4.8059,4.8117,4.825,4.8065,4.8066,4.81,4.8399,4.8432,4.8458,4.8226,4.823,4.8233,4.8396,0,4.7745,4.7876,4.7857,4.7984,4.8043,4.7995,4.8062,4.8089,4.8091,4.8142,4.8145,4.8203,4.8145,4.8162,4.8217,4.8222,4.8309,4.821,4.8286,4.8289,4.828,4.8486,4.852,4.8673,4.8417,4.8421,4.8423,0,4.7943,4.7984,4.8117,4.814,4.8164,4.8224,4.8272,4.8321,4.8351,4.8349,4.8382,4.8355,4.8433,4.8358,4.8466,4.8399,4.8429,4.8437,4.8442,4.8449,4.8364,4.8498,4.8721,4.8745,4.8456,4.8453,4.8451,0,4.8085,4.8174,4.8265,4.8284,4.8313,4.8357,4.8371,4.8397,4.843,4.8473,4.8494,4.8545,4.8573,4.8614,4.8602,4.8548,4.8714,4.8637,4.8715,4.8716,4.8752,4.8749,4.8984,4.8771,4.8771,4.8771,4.877,0,4.826,4.8343,4.8329,4.8385,4.8478,4.8456,4.8549,4.8557,4.8582,4.864,4.8602,4.8657,4.8638,4.8693,4.8685,4.8777,4.8789,4.8791,4.8788,4.8794,4.8794,4.8814,4.8803,4.8777,4.8775,4.8774,4.8773,0,4.8434,4.8427,4.8524,4.8544,4.8551,4.8619,4.8636,4.869,4.869,4.8764,4.878,4.8781,4.8844,4.8836,4.8907,4.8901,4.9016,4.8999,4.9005,4.9002,4.908,4.9073,4.9335,4.9369,4.9135,4.9137,4.9139,0,4.8546,4.8609,4.8636,4.8672,4.869,4.8748,4.8782,4.8765,4.8802,4.8843,4.8892,4.8951,4.8998,4.9102,4.9109,4.9163,4.9148,4.9237,4.9156,4.9162,4.9151,4.9147,4.9154,4.9252,4.9255,4.9257,4.9259,0,4.8746,4.874,4.879,4.8841,4.8883,4.8921,4.8956,4.8988,4.8974,4.9018,4.9082,4.9119,4.9191,4.9252,4.9303,4.9319,4.9288,4.9284,4.9305,4.9313,4.9314,4.9315,4.9049,4.9278,4.9276,4.9275,4.9274,4.9273,4.8893,4.8947,4.8976,4.9033,4.9058,4.9092,4.9144,4.9151,4.9204,4.9261,4.9248,4.932,4.9351,4.9418,4.9439,4.9497,4.9465,4.9495,4.9503,4.9511,4.952,4.9305,4.9506,4.9506,4.9505,4.9505,4.9504,0,4.9092,4.9108,4.9162,4.9212,4.9258,4.9224,4.9262,4.9303,4.9367,4.9398,4.9445,4.952,4.9579,4.9592,4.9649,4.9692,4.968,4.9708,4.9705,4.9709,4.9545,4.9522,4.9718,4.9718,4.9717,4.9717,4.9717,4.9717,4.9201,4.9291,4.929,4.9393,4.9409,4.9479,4.9504,4.9536,4.9561,4.9646,4.9694,4.9702,4.9727,4.9785,4.9838,4.9841,4.9864,4.9898,4.9895,4.9742,4.972,4.97,4.9678,4.9903,4.9904,5.0054,5.0056,5.0057]},{"header":{"parameterUnit":"m.s-1","parameterCategory":1,"la1":30.2991,"la2":30.254,"lo1":-89.0895,"lo2":-89.0444,"dy":0.0017,"dx":0.0017,"nx":28,"ny":28,"refTime":"2025-04-05T09:00:00:Z","depth":0,"parameterNumber":3,"parameterNumberName":"V-component_of_WINDS"},"data":[0,0,0,0,0,0,0,0,0,0,0,0,0,0,0,0,0,0,0,0,0,0,0,0,0,0,0,0,0,0,0,0,0,0,0,0,0,0,0,0,0,0,0,0,0,0,0,0,0,0,0,0,0,0,0,0,0,0,-3.586,-3.5863,0,-3.6131,-3.6134,-3.6137,-3.6227,-3.6226,-3.6225,-3.6224,-3.6509,-3.6517,-3.6526,0,0,0,0,0,0,0,0,0,0,0,0,0,-3.5431,-3.5438,-3.586,-3.5863,-3.5867,-3.613,-3.6134,-3.6138,-3.6228,-3.6226,-3.6225,-3.6223,-3.6506,-3.6516,-3.6527,0,0,0,0,0,0,0,0,0,0,0,0,0,-3.5651,-3.544,-3.5859,-3.5943,-3.5953,-3.6129,-3.6134,-3.6139,-3.6228,-3.6226,-3.6224,-3.6223,-3.6503,-3.6515,-3.6528,-3.6643,0,0,-3.6568,-3.6573,0,0,0,0,0,0,0,0,-3.5638,-3.5667,-3.5927,-3.5938,-3.5949,-3.6143,-3.6087,-3.6308,-3.6228,-3.6124,-3.6224,-3.6222,-3.6389,-3.6411,-3.6466,-3.6656,-3.6668,-3.6569,-3.6577,-3.6582,-3.6586,0,0,0,0,0,0,0,-3.5623,-3.5655,-3.5967,-3.5931,-3.5945,-3.597,-3.6,-3.6129,-3.6263,-3.6133,-3.614,-3.617,-3.6395,-3.6453,-3.6473,-3.6672,-3.6568,-3.658,-3.6588,-3.6593,-3.6973,-3.6975,0,0,0,0,0,0,-3.5592,-3.5642,-3.5959,-3.5975,-3.5786,-3.5979,-3.6012,-3.6083,-3.6262,-3.6287,-3.6172,-3.6174,-3.6432,-3.6458,-3.6484,-3.6631,-3.6582,-3.6594,-3.6602,-3.697,-3.6973,-3.6976,0,0,0,0,0,0,-3.5583,-3.562,-3.5948,-3.5811,-3.5855,-3.5989,-3.6067,-3.6089,-3.6148,-3.6291,-3.6316,-3.6206,-3.6432,-3.6466,-3.6603,-3.6642,-3.66,-3.6612,-3.6968,-3.6971,-3.6974,-3.6925,0,0,0,0,0,0,-3.557,-3.5616,-3.5658,-3.5811,-3.5861,-3.6059,-3.607,-3.6096,-3.6169,-3.6174,-3.633,-3.6355,-3.6433,-3.6583,-3.6615,-3.6659,-3.6622,-3.6965,-3.6969,-3.6973,-3.6924,-3.6927,-3.6929,0,0,0,0,0,-3.5554,-3.5635,-3.566,-3.5698,-3.5917,-3.6061,-3.609,-3.6177,-3.6172,-3.6217,-3.631,-3.635,-3.6632,-3.6596,-3.6634,-3.6682,-3.6963,-3.6968,-3.6973,-3.6923,-3.6926,-3.6929,0,0,0,0,0,0,-3.5486,-3.5657,-3.5686,-3.5818,-3.5924,-3.6076,-3.6136,-3.6177,-3.6289,-3.6289,-3.6394,-3.6429,-3.6558,-3.6634,-3.659,-3.6804,-3.68,-3.6813,-3.6749,-3.6753,-3.6755,-3.6735,-3.6633,0,0,0,0,0,-3.5486,-3.5586,-3.5731,-3.5833,-3.5885,-3.6001,-3.6067,-3.6124,-3.6239,-3.6285,-3.6388,-3.65,-3.6615,-3.6688,-3.6802,-3.6935,-3.6972,-3.6988,-3.699,-3.6991,-3.7002,-3.708,-3.7089,-3.6993,-3.6993,-3.6992,0,0,-3.5488,-3.5593,-3.565,-3.5822,-3.5911,-3.6015,-3.6038,-3.6147,-3.6226,-3.6303,-3.6438,-3.6517,-3.665,-3.6786,-3.6851,-3.6853,-3.7036,-3.6998,-3.6998,-3.7008,-3.7086,-3.7095,-3.7103,-3.6996,-3.6995,-3.6995,0,0,-3.5544,-3.5633,-3.5728,-3.5817,-3.595,-3.6027,-3.605,-3.6196,-3.6251,-3.6387,-3.6448,-3.6545,-3.674,-3.6832,-3.6905,-3.6997,-3.7038,-3.7031,-3.7044,-3.7119,-3.7127,-3.7134,-3.7168,-3.7179,-3.7041,-3.7041,-3.7041,0,-3.553,-3.5686,-3.5773,-3.5879,-3.5954,-3.6026,-3.6125,-3.6208,-3.6373,-3.6424,-3.6423,-3.667,-3.6764,-3.6924,-3.6946,-3.7002,-3.7034,-3.7014,-3.7118,-3.7126,-3.7134,-3.7168,-3.7181,-3.7039,-3.7039,-3.7039,-3.7039,0,-3.5663,-3.577,-3.5832,-3.5986,-3.6068,-3.617,-3.6276,-3.635,-3.64,-3.6478,-3.6617,-3.6733,-3.6872,-3.6914,-3.6965,-3.7082,-3.7079,-3.7097,-3.7095,-3.714,-3.7174,-3.7188,-3.7036,-3.7037,-3.7037,-3.7038,0,0,-3.5684,-3.5884,-3.5906,-3.5977,-3.613,-3.6216,-3.6323,-3.6456,-3.6517,-3.6629,-3.6723,-3.6886,-3.6904,-3.6986,-3.7049,-3.7115,-3.7182,-3.7125,-3.713,-3.7133,-3.7319,-3.7305,-3.7318,-3.721,-3.7213,-3.7215,-3.7309,0,-3.576,-3.595,-3.6032,-3.6186,-3.6287,-3.6358,-3.6452,-3.6557,-3.6633,-3.6733,-3.6819,-3.6933,-3.6947,-3.6997,-3.7065,-3.7159,-3.7221,-3.7153,-3.7301,-3.7305,-3.7265,-3.7336,-3.7321,-3.7403,-3.7322,-3.7324,-3.7326,0,-3.5874,-3.5983,-3.6146,-3.6287,-3.6333,-3.6415,-3.6545,-3.6638,-3.6761,-3.6812,-3.6903,-3.6963,-3.7081,-3.7071,-3.7236,-3.7188,-3.7254,-3.7309,-3.7315,-3.7332,-3.7318,-3.7356,-3.7432,-3.7444,-3.7348,-3.7346,-3.7344,0,-3.5874,-3.6062,-3.6184,-3.6243,-3.6411,-3.6467,-3.654,-3.6661,-3.6736,-3.685,-3.69,-3.7027,-3.7098,-3.7196,-3.729,-3.7273,-3.7447,-3.7444,-3.7494,-3.7492,-3.7528,-3.7525,-3.7615,-3.7569,-3.7568,-3.7568,-3.7568,0,-3.5951,-3.6048,-3.6186,-3.6261,-3.6373,-3.6469,-3.6578,-3.6657,-3.6763,-3.6857,-3.6928,-3.7015,-3.7133,-3.7236,-3.731,-3.7437,-3.7468,-3.7514,-3.7533,-3.7509,-3.7503,-3.7553,-3.755,-3.7572,-3.7571,-3.757,-3.757,0,-3.597,-3.6066,-3.6203,-3.635,-3.639,-3.6466,-3.6594,-3.6671,-3.675,-3.6869,-3.6902,-3.7028,-3.7153,-3.7256,-3.7421,-3.7471,-3.7603,-3.7625,-3.7561,-3.7571,-3.7616,-3.761,-3.7743,-3.7766,-3.7702,-3.7703,-3.7703,0,-3.6013,-3.6089,-3.6243,-3.631,-3.6381,-3.6488,-3.6564,-3.6662,-3.674,-3.6885,-3.6946,-3.7075,-3.7184,-3.7382,-3.749,-3.7617,-3.7642,-3.768,-3.7662,-3.7635,-3.7644,-3.7639,-3.7648,-3.7682,-3.7682,-3.7682,-3.7682,0,-3.608,-3.6123,-3.6229,-3.6352,-3.644,-3.6542,-3.6647,-3.6698,-3.6816,-3.69,-3.7027,-3.7111,-3.7279,-3.7408,-3.7547,-3.7626,-3.7675,-3.7687,-3.7706,-3.7681,-3.7642,-3.7665,-3.7566,-3.7684,-3.7683,-3.7683,-3.7683,-3.7683,-3.6113,-3.6184,-3.6304,-3.642,-3.6508,-3.6604,-3.6684,-3.6772,-3.6879,-3.7021,-3.7074,-3.7205,-3.7328,-3.7519,-3.7598,-3.7705,-3.771,-3.7737,-3.7744,-3.7749,-3.7746,-3.7624,-3.773,-3.773,-3.7731,-3.7731,-3.7731,0,-3.6184,-3.6264,-3.637,-3.6512,-3.6604,-3.6639,-3.6757,-3.6832,-3.6946,-3.7055,-3.716,-3.7308,-3.7433,-3.7551,-3.7683,-3.7746,-3.7772,-3.7777,-3.7774,-3.7792,-3.7733,-3.7704,-3.7754,-3.7754,-3.7754,-3.7754,-3.7754,-3.7754,-3.6232,-3.6354,-3.6412,-3.658,-3.6662,-3.6788,-3.6852,-3.6942,-3.703,-3.719,-3.7294,-3.7369,-3.7483,-3.7624,-3.7741,-3.7773,-3.7819,-3.7819,-3.7857,-3.78,-3.7796,-3.7792,-3.7766,-3.7828,-3.7828,-3.7907,-3.7908,-3.7908]}]]